TimeAKDT,TemperatureF,Dew PointF,Humidity,Sea Level PressureIn,VisibilityMPH,Wind Direction,Wind SpeedMPH,Gust SpeedMPH,PrecipitationIn,Events,Conditions,WindDirDegrees,DateUTC
12:52 AM,-9.9,-16.1,74,30.16,10.0,Calm,Calm,-,N/A,,Clear,0,2013-03-19 08:52:00
1:52 AM,-11.9,-18.0,74,30.17,10.0,Calm,Calm,-,N/A,,Clear,0,2013-03-19 09:52:00
2:52 AM,-8.0,-14.1,75,30.18,10.0,Calm,Calm,-,N/A,,Clear,0,2013-03-19 10:52:00
3:52 AM,-16.1,-20.9,79,30.19,10.0,Calm,Calm,-,N/A,,Clear,0,2013-03-19 11:52:00
4:52 AM,-18.9,-25.1,74,30.20,10.0,Calm,Calm,-,N/A,,Clear,0,2013-03-19 12:52:00
5:52 AM,-18.9,-25.1,74,30.21,10.0,Calm,Calm,-,N/A,,Clear,0,2013-03-19 13:52:00
6:52 AM,-20.9,-27.0,73,30.22,10.0,Calm,Calm,-,N/A,,Clear,0,2013-03-19 14:52:00
7:52 AM,-20.0,-25.1,78,30.23,10.0,Calm,Calm,-,N/A,,Clear,0,2013-03-19 15:52:00
8:52 AM,-20.9,-27.0,73,30.24,10.0,Calm,Calm,-,N/A,,Clear,0,2013-03-19 16:52:00
9:52 AM,-14.1,-18.9,79,30.25,10.0,Calm,Calm,-,N/A,,Clear,0,2013-03-19 17:52:00
10:52 AM,-7.1,-14.1,72,30.24,10.0,WSW,4.6,-,N/A,,Clear,240,2013-03-19 18:52:00
11:52 AM,1.0,-9.9,60,30.24,10.0,Calm,Calm,-,N/A,,Partly Cloudy,0,2013-03-19 19:52:00
12:52 PM,7.0,-8.0,51,30.23,10.0,Calm,Calm,-,N/A,,Partly Cloudy,0,2013-03-19 20:52:00
1:52 PM,10.9,-7.1,44,30.21,10.0,Calm,Calm,-,N/A,,Partly Cloudy,0,2013-03-19 21:52:00
2:52 PM,14.0,-7.1,39,30.20,10.0,SW,3.5,-,N/A,,Partly Cloudy,230,2013-03-19 22:52:00
3:52 PM,16.0,-6.0,38,30.18,10.0,NNW,9.2,-,N/A,,Partly Cloudy,340,2013-03-19 23:52:00
4:52 PM,16.0,-5.1,39,30.17,10.0,NNW,6.9,-,N/A,,Clear,330,2013-03-20 00:52:00
5:52 PM,15.1,-5.1,41,30.16,10.0,NNW,9.2,-,N/A,,Partly Cloudy,330,2013-03-20 01:52:00
6:52 PM,12.9,-7.1,41,30.16,10.0,North,12.7,-,N/A,,Partly Cloudy,360,2013-03-20 02:52:00
7:52 PM,10.0,-7.1,46,30.16,10.0,NW,4.6,-,N/A,,Partly Cloudy,320,2013-03-20 03:52:00
8:52 PM,7.0,-8.0,51,30.15,10.0,NW,11.5,-,N/A,,Partly Cloudy,310,2013-03-20 04:52:00
9:52 PM,5.0,-9.0,52,30.14,10.0,West,4.6,-,N/A,,Clear,270,2013-03-20 05:52:00
10:52 PM,1.0,-9.9,60,30.14,10.0,NW,9.2,-,N/A,,Clear,310,2013-03-20 06:52:00
11:52 PM,1.9,-9.9,58,30.13,10.0,Calm,Calm,-,N/A,,Clear,0,2013-03-20 07:52:00